This is the latest recevied weather packets stored in our database for station/object OE5RBO. If no packets are shown the sender has not sent any weather packets the latest 10 day(s).
| Time | Temp. | Humidity | Pressure | Rain* | Wind** | Luminosity | Snow |
|---|---|---|---|---|---|---|---|
| 1788667036 | 12.78° C | 100% | 1026.7 hPa | 0 mm | - | - | - |
| 1788666436 | 12.78° C | 100% | 1026.6 hPa | 0 mm | - | - | - |
| 1788665835 | 13.33° C | 99% | 1026.6 hPa | 0 mm | - | - | - |
| 1788665235 | 13.33° C | 99% | 1026.6 hPa | 0 mm | - | - | - |
| 1788664635 | 13.33° C | 99% | 1026.5 hPa | 0 mm | - | - | - |
| 1788664034 | 13.33° C | 99% | 1026.5 hPa | 0 mm | - | - | - |
| 1788663434 | 13.89° C | 99% | 1026.6 hPa | 0 mm | - | - | - |
| 1788662834 | 13.89° C | 99% | 1026.5 hPa | 0 mm | - | - | - |
| 1788661032 | 13.89° C | 99% | 1026.5 hPa | 0 mm | - | - | - |
| 1788660432 | 14.44° C | 99% | 1026.4 hPa | 0 mm | - | - | - |
| 1788659832 | 14.44° C | 98% | 1026.5 hPa | 0 mm | - | - | - |
| 1788659231 | 14.44° C | 98% | 1026.5 hPa | 0 mm | - | - | - |
| 1788658631 | 14.44° C | 98% | 1026.4 hPa | 0 mm | - | - | - |
| 1788658031 | 15° C | 98% | 1026.4 hPa | 0 mm | - | - | - |
| 1788657430 | 15° C | 98% | 1026.4 hPa | 0 mm | - | - | - |
| 1788656830 | 15.56° C | 98% | 1026.4 hPa | 0 mm | - | - | - |
| 1788656230 | 15.56° C | 98% | 1026.4 hPa | 0 mm | - | - | - |
| 1788655629 | 15.56° C | 98% | 1026.3 hPa | 0 mm | - | - | - |
| 1788654429 | 15.56° C | 98% | 1026.3 hPa | 0 mm | - | - | - |
| 1788653828 | 16.11° C | 98% | 1026.3 hPa | 0 mm | - | - | - |
| 1788653227 | 16.11° C | 98% | 1026.3 hPa | 0 mm | - | - | - |
| 1788652027 | 16.67° C | 98% | 1026.1 hPa | 0 mm | - | - | - |
| 1788650826 | 16.67° C | 98% | 1026.2 hPa | 0 mm | - | - | - |
| 1788650226 | 17.22° C | 98% | 1026.1 hPa | 6.86 mm | - | - | - |
| 1788649625 | 17.22° C | 98% | 1026.1 hPa | 6.86 mm | - | - | - |
* Rain since midnight (hover to see other rain measurements)
** Current wind speed in m/s (hover to see current wind gust speed)